• Join FlightAware (Why Join?)
  • Login
  • US Flag 
12:06AM EST


 

Airport Tracker/Info


-or-


 

Live Flight TrackerFlight Track Log ✈ SWA2874 ✈ 05-May-2013 ✈ KGSP - KBWI

Flight Track Log - Related Links

Times and Time Zones

All times are in EDT time to prevent confusion due to time zone crossing. See the SWA2874 flight status page for this flight to view local times or setup timezone preferences in your user account.

Time Position Orientation Groundspeed Altitude Reporting Facility
EDT Latitude Longitude Course Direction KTS MPH feet Rate Location/Type
07:43PM 34.9797 -82.1453 73° East 226 260 5,800  Level Atlanta Center
07:44PM 35.0011 -82.0583 73° East 241 277 9,600 3,322 Climbing Atlanta Center
07:45PM 35.0353 -81.9636 66° East 277 319 12,500 2,650 Climbing Atlanta Center
07:46PM 35.1117 -81.9314 19° North 277 319 14,900 2,500 Climbing Atlanta Center
07:47PM 35.2247 -81.9386 357° North 345 397 17,500 2,750 Climbing Atlanta Center
07:48PM 35.3414 -81.9433 358° North 398 458 20,400 2,723 Climbing Atlanta Center
07:49PM 35.4428 -81.8822 26° Northeast 405 466 22,900 1,537 Climbing Atlanta Center
07:50PM 35.4883 -81.7458 68° East 389 448 23,500 1,537 Climbing Atlanta Center
07:51PM 35.5375 -81.5964 68° East 411 473 26,000 2,319 Climbing Atlanta Center
07:52PM 35.5828 -81.4597 68° East 428 493 28,100 1,750 Climbing Atlanta Center
07:53PM 35.6275 -81.3178 69° East 435 501 29,500 1,765 Climbing Atlanta Center
07:54PM 35.6681 -81.1758 71° East 450 518 31,600 1,866 Climbing Atlanta Center
07:55PM 35.7189 -81.0283 67° East 455 524 33,200 1,587 Climbing Atlanta Center
07:56PM 35.7653 -80.8806 69° East 465 535 34,800 1,850 Climbing Atlanta Center
07:57PM 35.8219 -80.7403 63° Northeast 457 526 36,900 1,450 Climbing Atlanta Center
07:58PM 35.9019 -80.6086 53° Northeast 466 536 37,700 843 Climbing Atlanta Center
07:59PM 35.9711 -80.4750 57° Northeast 466 536 38,600 491 Climbing Atlanta Center
08:00PM 36.1014 -80.2347 56° Northeast 510 587 39,000 150 Climbing Washington Center
08:01PM 36.1675 -80.0919 60° Northeast 486 559 39,000  Level Washington Center
08:02PM 36.2300 -79.9797 55° Northeast 450 518 39,000  Level Washington Center
08:03PM 36.2997 -79.8419 58° Northeast 450 518 39,000 -403 Level Washington Center
08:04PM 36.3650 -79.7011 60° Northeast 458 527 38,200 -843 Descending Washington Center
08:05PM 36.4303 -79.5675 59° Northeast 458 527 37,300 -885 Descending Washington Center
08:06PM 36.4994 -79.4264 59° Northeast 458 527 36,400 -958 Descending Washington Center
08:07PM 36.5642 -79.2900 59° Northeast 458 527 35,400 -1,059 Descending Washington Center
08:08PM 36.6419 -79.1383 57° Northeast 458 527 34,300 -1,835 Descending Washington Center
08:09PM 36.7064 -79.0014 60° Northeast 458 527 31,700 -2,479 Descending Washington Center
08:10PM 36.7728 -78.8669 58° Northeast 452 520 29,300 -1,339 Descending Washington Center
08:11PM 36.8281 -78.7497 59° Northeast 452 520 29,000 -153 Descending Washington Center
08:12PM 36.8919 -78.6200 58° Northeast 441 507 29,000  Level Washington Center
08:13PM 36.9556 -78.4900 58° Northeast 435 501 29,000 -446 Level Washington Center
08:14PM 37.0236 -78.3442 60° Northeast 441 507 28,100 -942 Descending Washington Center
08:15PM 37.0850 -78.2161 59° Northeast 435 501 27,100 -1,000 Descending Washington Center
08:16PM 37.1417 -78.0958 59° Northeast 420 483 26,100 -545 Descending Washington Center
08:17PM 37.2050 -77.9647 59° Northeast 415 478 26,000 -443 Descending Washington Center
08:18PM 37.2883 -77.8578 46° Northeast 425 489 25,200 -915 Descending Washington Center
08:19PM 37.3981 -77.7903 26° Northeast 420 483 24,200 -1,026 Descending Washington Center
08:20PM 37.5036 -77.7200 28° Northeast 426 490 23,200 -590 Descending Washington Center
08:21PM 37.6072 -77.6497 28° Northeast 421 484 23,000 -98 Descending Washington Center
08:22PM 37.7125 -77.5842 26° Northeast 421 484 23,000  Level Washington Center
08:23PM 37.8158 -77.5133 28° Northeast 416 479 23,000 -504 Level Washington Center
08:24PM 37.9211 -77.4450 27° Northeast 416 479 22,000 -984 Descending Washington Center
08:25PM 38.0244 -77.3736 29° Northeast 416 479 21,000 -908 Descending Washington Center
08:26PM 38.1169 -77.3206 24° Northeast 411 473 20,200 -958 Descending Washington Center
08:27PM 38.2139 -77.2539 28° Northeast 406 467 19,100 -1,835 Descending Washington Center
08:28PM 38.3192 -77.1822 28° Northeast 401 461 16,500 -2,083 Descending Washington Center
08:29PM 38.4056 -77.1072 34° Northeast 389 448 14,900 -1,785 Descending Washington Center
08:30PM 38.4794 -77.0211 42° Northeast 369 425 12,900 -1,765 Descending Washington Center
08:31PM 38.5494 -76.9350 44° Northeast 356 410 11,400 -1,322 Descending Washington Center
08:32PM 38.6169 -76.8539 43° Northeast 337 388 10,300 -908 Descending Washington Center
08:33PM 38.6783 -76.7778 44° Northeast 318 366 9,600 -793 Descending Washington Center
08:34PM 38.7247 -76.6986 53° Northeast 291 335 8,700 -1,169 Descending Washington Center
08:35PM 38.7667 -76.6167 57° Northeast 270 311 7,300 -1,385 Descending Potomac TRACON
08:36PM 38.8000 -76.5333 63° Northeast 271 312 6,000 -1,050 Descending Potomac TRACON
08:37PM 38.8833 -76.5500 351° North 277 319 5,200 -893 Descending Potomac TRACON
08:38PM 38.9500 -76.5833 339° North 277 319 4,200 -595 Descending Potomac TRACON
08:39PM 39.0000 -76.6500 314° West 273 314 4,000 -100 Descending Potomac TRACON
08:40PM 39.0333 -76.7333 297° West 278 320 4,000  Level Potomac TRACON
08:41PM 39.0667 -76.8167 297° West 280 322 4,000 -250 Level Potomac TRACON
08:42PM 39.1167 -76.9000 308° West 252 290 3,500 -600 Descending Potomac TRACON
08:43PM 39.1667 -76.8833 14° North 185 213 2,800 -800 Descending Potomac TRACON
08:44PM 39.1667 -76.8333 90° East 162 186 1,900 -700 Descending Potomac TRACON
08:45PM 39.1833 -76.7833 67° East 146 168 1,400 -550 Descending Potomac TRACON
08:46PM 39.1833 -76.7333 90° East 133 153 800 -600 Descending Potomac TRACON
08:48PM 39.1667 -76.6667 90° East  Level FlightAware Approximate
08:55PM 39.1754 -76.6683 90° East  Level Estimated
08:56PM 39.1754 -76.6683 90° East  Level Estimated